Powrót do katalogu

STARLINK-31927

AktywnyŁącznośćVLEO
NORAD 59837·PAYLOAD·🇺🇸 United States

Wystrzelony May 23, 2024 z Cape Canaveral Space Force Station

Loading…

Następne Przeloty (najbliższe 24 godziny)

TLE

ŚwieżeSource: CelesTrak SupGP

Epoka: Sep 14, 2026, 20:38 UTC

1 59837C 24097C   26257.86020833 -.00010928  00000+0 -39588-3 0  2570
2 59837  43.0002 286.0464 0001477 266.7071 241.8038 15.27579124    11

Śledź STARLINK-31927 w czasie rzeczywistym z AllMySat

Download on the App Store